This is the latest recevied weather packets stored in our database for station/object WR9A-13. If no packets are shown the sender has not sent any weather packets the latest 10 day(s).
| Time | Temp. | Humidity | Pressure | Rain* | Wind** | Luminosity | Snow |
|---|---|---|---|---|---|---|---|
| 1787938825 | 27.78° C | 57% | 1021.7 hPa | 0 mm | - | - | - |
| 1787938542 | 27.78° C | 55% | 1021.9 hPa | 0 mm | - | - | - |
| 1787938230 | 27.78° C | 53% | 1021.9 hPa | 0 mm | - | - | - |
| 1787937917 | 27.78° C | 53% | 1022 hPa | 0 mm | - | - | - |
| 1787937614 | 27.78° C | 55% | 1021.9 hPa | 0 mm | - | - | - |
| 1787937331 | 27.78° C | 56% | 1021.9 hPa | 0 mm | - | - | - |
| 1787937017 | 27.78° C | 57% | 1021.9 hPa | 0 mm | - | - | - |
| 1787936734 | 27.78° C | 56% | 1021.9 hPa | 0 mm | - | - | - |
| 1787936417 | 27.78° C | 55% | 1022 hPa | 0 mm | - | - | - |
| 1787936114 | 27.78° C | 55% | 1022.1 hPa | 0 mm | - | - | - |
| 1787935821 | 27.22° C | 56% | 1022 hPa | 0 mm | - | - | - |
| 1787935518 | 27.22° C | 55% | 1022.1 hPa | 0 mm | - | - | - |
| 1787935226 | 27.22° C | 58% | 1022.2 hPa | 0 mm | - | - | - |
| 1787934922 | 27.22° C | 59% | 1022.3 hPa | 0 mm | - | - | - |
| 1787934641 | 27.78° C | 55% | 1022.3 hPa | 0 mm | - | - | - |
| 1787934328 | 27.22° C | 58% | 1022.2 hPa | 0 mm | - | - | - |
| 1787934016 | 27.22° C | 58% | 1022.1 hPa | 0 mm | - | - | - |
| 1787933733 | 27.22° C | 59% | 1022 hPa | 0 mm | - | - | - |
| 1787933420 | 26.67° C | 60% | 1021.9 hPa | 0 mm | - | - | - |
| 1787933116 | 26.67° C | 58% | 1021.9 hPa | 0 mm | - | - | - |
| 1787932826 | 26.67° C | 60% | 1021.9 hPa | 0 mm | - | - | - |
| 1787932513 | 26.11° C | 62% | 1021.9 hPa | 0 mm | - | - | - |
| 1787932230 | 25.56° C | 63% | 1021.9 hPa | 0 mm | - | - | - |
| 1787931918 | 25.56° C | 64% | 1021.9 hPa | 0 mm | - | - | - |
| 1787931635 | 25.56° C | 64% | 1022 hPa | 0 mm | - | - | - |
* Rain latest hour (hover to see other rain measurements)
** Current wind speed in m/s (hover to see current wind gust speed)